Content
SEND FEEDBACK

Daily
Averages
Monthly
Summary
United States of America

WAYNE CITY, ILLINOIS


Home > North America > United States > Illinois
Elevation: 407 feet     Latitude: 38 21N     Longitude: 088 35W

WEATHER
 
SELECT A DAY
Number of Records: 311,209;   Date Range: 7/17/01 - 7/23/14
 
SHARE

PRINT THIS DATA

[ ← Previous Day ]
WEATHER ALMANAC - FEBRUARY 13, 2013
[ Next Day → ]
[ °C ]   °F
Weather ElementAverageHighLow
Temperature40.2 °F48.2 °F (3:15 pm)35.6 °F (4:35 am)
Dewpoint33.3 °F35.6 °F (6:15 pm)30.2 °F (11:35 am)
Humidity77.8 %93 % (6:55 am)50 % (4:15 pm)
Barometer29.88 in29.92 in (12:35 am)29.84 in (1:55 pm)
Wind Speed5.5 mph11.5 mph (2:35 pm)
Wind Gust16.1 mph (3:55 pm)
Weather ElementAverage
Visibility8.8 mi
Wind DirectionS (180.4 °)

Weather ElementTotal
Precipitation---
Heating Degree Days23.1 (Base 65)
Averaged from 71 records on February 13, 2013
WEATHER CONDITIONS BREAKOUT
WIND DIRECTION BREAKOUT
WEATHER BY HOUR - FEBRUARY 13, 2013
[ °C ]   °F
Local TimeTemperatureDewpointHumidityBarometerVisibilityWind DirectionWind SpeedGust SpeedPrecipitationEventsConditions
12:35 AM37.4 °F33.8 °F87 %29.92 in10.0 miNNE (30°)5.8 mphOvercast
12:55 AM37.4 °F33.8 °F87 %29.92 in10.0 miCalmOvercast
1:15 AM37.4 °F33.8 °F87 %29.91 in10.0 miNorth (10°)5.8 mphOvercast
1:35 AM37.4 °F33.8 °F87 %29.90 in10.0 miNorth (10°)4.6 mphMostly Cloudy
1:55 AM37.4 °F32.0 °F81 %29.90 in10.0 miNorth (350°)5.8 mphOvercast
2:15 AM37.4 °F32.0 °F81 %29.90 in10.0 miNorth (360°)10.4 mphOvercast
2:35 AM37.4 °F32.0 °F81 %29.88 in10.0 miNorth (10°)10.4 mphOvercast
2:55 AM37.4 °F32.0 °F81 %29.88 in10.0 miNorth (10°)5.8 mphOvercast
3:15 AM37.4 °F33.8 °F87 %29.88 in10.0 miNorth (360°)6.9 mphLight Drizzle
3:35 AM37.4 °F32.0 °F81 %29.87 in10.0 miNorth (360°)6.9 mphRainLight Rain
3:55 AM37.4 °F32.0 °F81 %29.87 in10.0 miNorth (360°)5.8 mphOvercast
4:15 AM37.4 °F32.0 °F81 %29.86 in7.0 miNNW (340°)3.5 mphOvercast
4:35 AM35.6 °F32.0 °F87 %29.87 in7.0 miNorth (360°)4.6 mphOvercast
4:55 AM35.6 °F32.0 °F87 %29.86 in7.0 miNorth (360°)8.1 mphOvercast
5:15 AM35.6 °F32.0 °F87 %29.86 in7.0 miNNE (20°)4.6 mphOvercast
5:35 AM35.6 °F32.0 °F87 %29.86 in5.0 miNNE (30°)4.6 mphOvercast
5:55 AM35.6 °F32.0 °F87 %29.87 in5.0 miCalmOvercast
6:15 AM35.6 °F32.0 °F87 %29.87 in5.0 miCalmOvercast
6:35 AM35.6 °F32.0 °F87 %29.87 in5.0 miCalmLight Drizzle
6:55 AM35.6 °F33.8 °F93 %29.88 in5.0 miCalmRainLight Rain
7:15 AM35.6 °F32.0 °F87 %29.89 in5.0 miCalmLight Drizzle
7:35 AM35.6 °F32.0 °F87 %29.89 in5.0 miCalmOvercast
7:55 AM35.6 °F33.8 °F93 %29.89 in5.0 miCalmScattered Clouds
8:15 AM35.6 °F33.8 °F93 %29.89 in5.0 miCalmMostly Cloudy
8:35 AM37.4 °F33.8 °F87 %29.90 in5.0 miCalmMostly Cloudy
8:55 AM37.4 °F33.8 °F87 %29.90 in5.0 miCalmScattered Clouds
9:15 AM37.4 °F32.0 °F81 %29.90 in7.0 miCalmScattered Clouds
9:35 AM37.4 °F32.0 °F81 %29.90 in7.0 miWest (260°)4.6 mphScattered Clouds
9:55 AM37.4 °F33.8 °F87 %29.91 in7.0 miWest (260°)4.6 mphClear
10:15 AM39.2 °F33.8 °F81 %29.90 in7.0 miWSW (250°)4.6 mphClear
10:35 AM39.2 °F33.8 °F81 %29.90 in7.0 miWest (260°)4.6 mphScattered Clouds
10:55 AM39.2 °F33.8 °F81 %29.90 in10.0 miWest (260°)4.6 mphMostly Cloudy
11:15 AM41.0 °F33.8 °F76 %29.89 in10.0 miWest (280°)5.8 mphScattered Clouds
11:35 AM42.8 °F30.2 °F61 %29.89 in10.0 miWest (270°)5.8 mphMostly Cloudy
11:55 AM42.8 °F30.2 °F61 %29.87 in10.0 miWest (260°)5.8 mphScattered Clouds
12:15 PM44.6 °F30.2 °F57 %29.87 in10.0 miWest (260°)8.1 mphClear
12:35 PM44.6 °F33.8 °F66 %29.86 in10.0 miSW (230°)5.8 mphClear
12:55 PM46.4 °F33.8 °F62 %29.85 in10.0 miWSW (240°)6.9 mphClear
1:15 PM46.4 °F33.8 °F62 %29.85 in10.0 miSW (230°)6.9 mphClear
1:35 PM46.4 °F33.8 °F62 %29.85 in10.0 miSW (220°)9.2 mphClear
1:55 PM46.4 °F33.8 °F62 %29.84 in10.0 miWSW (240°)10.4 mphScattered Clouds
2:15 PM46.4 °F33.8 °F62 %29.84 in10.0 miWest (260°)6.9 mphScattered Clouds
2:35 PM46.4 °F33.8 °F62 %29.84 in10.0 miSW (230°)11.5 mphScattered Clouds
2:55 PM46.4 °F33.8 °F62 %29.84 in10.0 miSW (220°)9.2 mphClear
3:15 PM48.2 °F33.8 °F58 %29.84 in10.0 miSW (230°)10.4 mphClear
3:35 PM48.2 °F33.8 °F58 %29.84 in10.0 miWSW (240°)9.2 mphClear
3:55 PM48.2 °F32.0 °F54 %29.84 in10.0 miWSW (240°)10.4 mph16.1 mphClear
4:15 PM48.2 °F30.2 °F50 %29.84 in10.0 miWSW (240°)11.5 mphClear
4:35 PM46.4 °F30.2 °F53 %29.85 in10.0 miSW (230°)10.4 mphClear
4:55 PM46.4 °F30.2 °F53 %29.84 in10.0 miSW (220°)8.1 mphClear
5:15 PM46.4 °F32.0 °F57 %29.85 in10.0 miSW (220°)4.6 mphClear
5:35 PM44.6 °F30.2 °F57 %29.85 in10.0 miSW (220°)3.5 mphClear
5:55 PM44.6 °F32.0 °F61 %29.85 in10.0 miSouth (190°)3.5 mphClear
6:15 PM42.8 °F35.6 °F76 %29.85 in10.0 miSouth (180°)3.5 mphClear
6:35 PM41.0 °F35.6 °F81 %29.86 in10.0 miSouth (190°)3.5 mphClear
6:55 PM41.0 °F35.6 °F81 %29.86 in10.0 miSouth (190°)5.8 mphClear
7:15 PM42.8 °F33.8 °F70 %29.87 in10.0 miSouth (190°)6.9 mphClear
7:35 PM42.8 °F33.8 °F70 %29.87 in10.0 miSouth (190°)5.8 mphClear
7:55 PM39.2 °F35.6 °F87 %29.87 in10.0 miSSW (200°)8.1 mphClear
8:15 PM41.0 °F35.6 °F81 %29.87 in10.0 miSSW (200°)9.2 mphClear
8:35 PM39.2 °F35.6 °F87 %29.88 in10.0 miSSW (200°)8.1 mphClear
8:55 PM39.2 °F35.6 °F87 %29.88 in10.0 miSSW (210°)6.9 mphClear
9:15 PM39.2 °F35.6 °F87 %29.89 in10.0 miSSW (200°)8.1 mphClear
9:35 PM39.2 °F35.6 °F87 %29.89 in10.0 miSSW (200°)8.1 mphClear
9:55 PM39.2 °F35.6 °F87 %29.89 in10.0 miSSW (200°)6.9 mphClear
10:15 PM37.4 °F35.6 °F93 %29.89 in10.0 miSSW (200°)5.8 mphClear
10:35 PM37.4 °F35.6 °F93 %29.89 in10.0 miSSW (200°)6.9 mphClear
10:55 PM37.4 °F35.6 °F93 %29.90 in10.0 miSSW (210°)5.8 mphClear
11:15 PM37.4 °F35.6 °F93 %29.90 in10.0 miSSW (210°)5.8 mphClear
11:35 PM37.4 °F35.6 °F93 %29.90 in10.0 miSSW (210°)4.6 mphClear
11:55 PM37.4 °F35.6 °F93 %29.90 in7.0 miSSW (200°)3.5 mphClear
Hourly data recorded from KFWC, located miles away from Wayne City, Illinois







STORIES FROM OUR PARTNERS